Time,TemperatureF,DewpointF,PressureIn,WindDirection,WindDirectionDegrees,WindSpeedMPH,WindSpeedGustMPH,Humidity,HourlyPrecipIn,Conditions,Clouds,dailyrainin,SoftwareType,DateUTC
2013-04-06 00:10:00,49.6,49.0,29.75,SW,228,0.0,-999.0,99,-99.99,,,0.02,weatherlink.com 1.10,2013-04-06 07:10:00,
2013-04-06 00:25:00,49.6,49.0,29.75,SW,234,0.0,-999.0,99,-99.99,,,0.04,weatherlink.com 1.10,2013-04-06 07:25:00,
2013-04-06 00:40:00,49.5,49.0,29.75,SW,233,0.0,-999.0,99,-99.99,,,0.06,weatherlink.com 1.10,2013-04-06 07:40:00,
2013-04-06 00:55:00,49.5,49.0,29.76,South,186,0.0,-999.0,99,-99.99,,,0.09,weatherlink.com 1.10,2013-04-06 07:55:00,
2013-04-06 01:25:00,49.4,49.0,29.76,NE,42,0.0,-999.0,99,-99.99,,,0.12,weatherlink.com 1.10,2013-04-06 08:25:00,
2013-04-06 01:40:00,49.4,49.0,29.76,ESE,113,0.0,-999.0,99,-99.99,,,0.13,weatherlink.com 1.10,2013-04-06 08:40:00,
2013-04-06 01:55:00,49.4,49.0,29.78,ESE,113,0.0,-999.0,100,-99.99,,,0.16,weatherlink.com 1.10,2013-04-06 08:55:00,
2013-04-06 02:10:00,49.4,49.0,29.78,SW,222,0.0,-999.0,100,-99.99,,,0.18,weatherlink.com 1.10,2013-04-06 09:10:00,
2013-04-06 02:25:00,49.2,49.0,29.78,North,350,0.0,-999.0,100,-99.99,,,0.19,weatherlink.com 1.10,2013-04-06 09:25:00,
2013-04-06 02:40:00,49.2,49.0,29.79,North,350,0.0,-999.0,100,-99.99,,,0.23,weatherlink.com 1.10,2013-04-06 09:40:00,
2013-04-06 02:55:00,49.1,49.0,29.79,SSE,155,0.0,-999.0,100,-99.99,,,0.23,weatherlink.com 1.10,2013-04-06 09:55:00,
2013-04-06 03:10:00,48.8,49.0,29.79,SSE,155,0.0,-999.0,100,-99.99,,,0.24,weatherlink.com 1.10,2013-04-06 10:10:00,
2013-04-06 03:25:00,48.6,49.0,29.79,SSE,163,0.0,-999.0,100,-99.99,,,0.27,weatherlink.com 1.10,2013-04-06 10:25:00,
2013-04-06 03:40:00,48.5,49.0,29.80,SSE,163,0.0,-999.0,100,-99.99,,,0.27,weatherlink.com 1.10,2013-04-06 10:40:00,
2013-04-06 03:55:00,48.3,48.0,29.80,SSE,165,0.0,-999.0,100,-99.99,,,0.31,weatherlink.com 1.10,2013-04-06 10:55:00,
2013-04-06 04:10:00,48.3,48.0,29.81,SSE,161,0.0,-999.0,100,-99.99,,,0.34,weatherlink.com 1.10,2013-04-06 11:10:00,
2013-04-06 04:25:00,48.0,48.0,29.81,SSE,161,0.0,-999.0,100,-99.99,,,0.34,weatherlink.com 1.10,2013-04-06 11:25:00,
2013-04-06 04:40:00,48.2,48.0,29.82,SSE,166,0.0,-999.0,100,-99.99,,,0.36,weatherlink.com 1.10,2013-04-06 11:40:00,
2013-04-06 04:55:00,47.9,48.0,29.82,SSE,166,0.0,-999.0,100,-99.99,,,0.37,weatherlink.com 1.10,2013-04-06 11:55:00,
2013-04-06 05:10:00,47.9,48.0,29.83,SSE,166,0.0,-999.0,100,-99.99,,,0.38,weatherlink.com 1.10,2013-04-06 12:10:00,
2013-04-06 05:25:00,47.7,48.0,29.83,SSE,166,0.0,-999.0,100,-99.99,,,0.39,weatherlink.com 1.10,2013-04-06 12:25:00,
2013-04-06 05:40:00,47.6,48.0,29.84,SSE,166,0.0,-999.0,100,-99.99,,,0.42,weatherlink.com 1.10,2013-04-06 12:40:00,
2013-04-06 05:55:00,47.1,47.0,29.84,SSE,166,1.0,-999.0,100,-99.99,,,0.42,weatherlink.com 1.10,2013-04-06 12:55:00,
2013-04-06 06:10:00,46.7,47.0,29.84,SSE,166,0.0,-999.0,100,-99.99,,,0.42,weatherlink.com 1.10,2013-04-06 13:10:00,
2013-04-06 06:25:00,46.5,47.0,29.84,SSE,166,0.0,-999.0,100,-99.99,,,0.42,weatherlink.com 1.10,2013-04-06 13:25:00,
2013-04-06 06:40:00,46.7,47.0,29.84,SSE,166,0.0,-999.0,100,-99.99,,,0.43,weatherlink.com 1.10,2013-04-06 13:40:00,
2013-04-06 06:55:00,46.7,47.0,29.85,SSE,166,0.0,-999.0,100,-99.99,,,0.44,weatherlink.com 1.10,2013-04-06 13:55:00,
2013-04-06 07:10:00,46.5,47.0,29.85,SSE,166,0.0,-999.0,100,-99.99,,,0.44,weatherlink.com 1.10,2013-04-06 14:10:00,
2013-04-06 07:25:00,46.7,47.0,29.85,SSE,166,0.0,-999.0,100,-99.99,,,0.44,weatherlink.com 1.10,2013-04-06 14:25:00,
2013-04-06 07:40:00,46.5,47.0,29.86,SSE,166,0.0,-999.0,100,-99.99,,,0.44,weatherlink.com 1.10,2013-04-06 14:40:00,
2013-04-06 07:56:00,46.7,47.0,29.86,SSE,166,0.0,-999.0,100,-99.99,,,0.44,weatherlink.com 1.10,2013-04-06 14:56:00,
2013-04-06 08:10:00,47.1,47.0,29.87,SSE,166,0.0,-999.0,100,-99.99,,,0.44,weatherlink.com 1.10,2013-04-06 15:10:00,
2013-04-06 08:25:00,47.6,48.0,29.87,SSE,166,0.0,-999.0,100,-99.99,,,0.44,weatherlink.com 1.10,2013-04-06 15:25:00,
2013-04-06 08:40:00,47.7,48.0,29.87,SSE,166,0.0,-999.0,100,-99.99,,,0.44,weatherlink.com 1.10,2013-04-06 15:40:00,
2013-04-06 08:56:00,47.6,48.0,29.88,SSE,166,0.0,-999.0,100,-99.99,,,0.45,weatherlink.com 1.10,2013-04-06 15:56:00,
2013-04-06 09:10:00,48.8,49.0,29.88,South,171,1.0,-999.0,100,-99.99,,,0.45,weatherlink.com 1.10,2013-04-06 16:10:00,
2013-04-06 09:25:00,49.1,49.0,29.88,South,171,0.0,-999.0,100,-99.99,,,0.45,weatherlink.com 1.10,2013-04-06 16:25:00,
2013-04-06 09:55:00,49.8,50.0,29.89,SSE,167,0.0,-999.0,100,-99.99,,,0.45,weatherlink.com 1.10,2013-04-06 16:55:00,
2013-04-06 10:10:00,51.0,51.0,29.89,South,169,0.0,-999.0,100,-99.99,,,0.45,weatherlink.com 1.10,2013-04-06 17:10:00,
2013-04-06 10:25:00,51.4,51.0,29.90,South,171,0.0,-999.0,99,-99.99,,,0.45,weatherlink.com 1.10,2013-04-06 17:25:00,
2013-04-06 10:40:00,52.0,52.0,29.90,SSE,168,0.0,-999.0,98,-99.99,,,0.45,weatherlink.com 1.10,2013-04-06 17:40:00,
2013-04-06 10:56:00,52.9,52.0,29.90,NE,38,0.0,-999.0,97,-99.99,,,0.45,weatherlink.com 1.10,2013-04-06 17:56:00,
2013-04-06 11:11:00,52.6,51.0,29.90,WNW,285,0.0,-999.0,94,-99.99,,,0.45,weatherlink.com 1.10,2013-04-06 18:11:00,
2013-04-06 11:25:00,52.9,51.0,29.91,South,180,0.0,-999.0,94,-99.99,,,0.45,weatherlink.com 1.10,2013-04-06 18:25:00,
2013-04-06 11:40:00,52.0,50.0,29.91,South,171,1.0,-999.0,91,-99.99,,,0.45,weatherlink.com 1.10,2013-04-06 18:40:00,
2013-04-06 12:09:00,52.8,50.0,29.90,South,169,0.0,-999.0,90,-99.99,,,0.45,weatherlink.com 1.10,2013-04-06 19:09:00,
2013-04-06 12:26:00,55.0,50.0,29.91,SSW,194,0.0,-999.0,84,-99.99,,,0.45,weatherlink.com 1.10,2013-04-06 19:26:00,
2013-04-06 12:41:00,54.5,50.0,29.90,SW,226,0.0,-999.0,85,-99.99,,,0.45,weatherlink.com 1.10,2013-04-06 19:41:00,
2013-04-06 12:55:00,55.6,52.0,29.90,SSW,193,0.0,-999.0,87,-99.99,,,0.45,weatherlink.com 1.10,2013-04-06 19:55:00,
2013-04-06 13:10:00,54.5,50.0,29.90,SSW,196,0.0,-999.0,85,-99.99,,,0.45,weatherlink.com 1.10,2013-04-06 20:10:00,
2013-04-06 13:40:00,53.5,50.0,29.90,South,189,0.0,-999.0,87,-99.99,,,0.45,weatherlink.com 1.10,2013-04-06 20:40:00,
2013-04-06 13:55:00,53.5,50.0,29.90,SSW,194,0.0,-999.0,86,-99.99,,,0.45,weatherlink.com 1.10,2013-04-06 20:55:00,
2013-04-06 14:10:00,53.6,48.0,29.89,SSW,198,0.0,-999.0,81,-99.99,,,0.45,weatherlink.com 1.10,2013-04-06 21:10:00,
2013-04-06 14:26:00,53.5,46.0,29.89,SSW,210,0.0,-999.0,77,-99.99,,,0.45,weatherlink.com 1.10,2013-04-06 21:26:00,
2013-04-06 14:41:00,53.5,47.0,29.89,SW,221,0.0,-999.0,79,-99.99,,,0.45,weatherlink.com 1.10,2013-04-06 21:41:00,
2013-04-06 14:55:00,53.2,47.0,29.89,SSW,198,0.0,-999.0,80,-99.99,,,0.45,weatherlink.com 1.10,2013-04-06 21:55:00,
2013-04-06 15:25:00,52.2,48.0,29.88,SW,218,0.0,-999.0,85,-99.99,,,0.46,weatherlink.com 1.10,2013-04-06 22:25:00,
2013-04-06 15:41:00,50.4,47.0,29.89,South,189,0.0,-999.0,87,-99.99,,,0.46,weatherlink.com 1.10,2013-04-06 22:41:00,
2013-04-06 15:55:00,49.6,46.0,29.88,South,189,0.0,-999.0,88,-99.99,,,0.46,weatherlink.com 1.10,2013-04-06 22:55:00,
2013-04-06 16:11:00,49.9,48.0,29.87,South,189,0.0,-999.0,92,-99.99,,,0.47,weatherlink.com 1.10,2013-04-06 23:11:00,
2013-04-06 16:26:00,49.9,48.0,29.87,SSW,200,0.0,-999.0,93,-99.99,,,0.47,weatherlink.com 1.10,2013-04-06 23:26:00,
2013-04-06 16:40:00,49.1,47.0,29.86,SSW,200,0.0,-999.0,92,-99.99,,,0.48,weatherlink.com 1.10,2013-04-06 23:40:00,
2013-04-06 16:56:00,48.6,47.0,29.86,SSW,200,0.0,-999.0,94,-99.99,,,0.48,weatherlink.com 1.10,2013-04-06 23:56:00,
2013-04-06 17:10:00,48.5,47.0,29.86,SSW,200,0.0,-999.0,95,-99.99,,,0.49,weatherlink.com 1.10,2013-04-07 00:10:00,
2013-04-06 17:25:00,48.2,47.0,29.86,SSW,200,0.0,-999.0,96,-99.99,,,0.50,weatherlink.com 1.10,2013-04-07 00:25:00,
2013-04-06 17:40:00,48.0,47.0,29.85,SSW,200,0.0,-999.0,96,-99.99,,,0.50,weatherlink.com 1.10,2013-04-07 00:40:00,
2013-04-06 17:55:00,48.2,47.0,29.85,SSW,200,0.0,-999.0,97,-99.99,,,0.51,weatherlink.com 1.10,2013-04-07 00:55:00,
2013-04-06 18:11:00,47.9,47.0,29.85,SSW,200,0.0,-999.0,97,-99.99,,,0.52,weatherlink.com 1.10,2013-04-07 01:11:00,
2013-04-06 18:25:00,48.0,47.0,29.84,SSW,200,0.0,-999.0,97,-99.99,,,0.54,weatherlink.com 1.10,2013-04-07 01:25:00,
2013-04-06 18:40:00,47.9,47.0,29.84,SSW,200,0.0,-999.0,98,-99.99,,,0.56,weatherlink.com 1.10,2013-04-07 01:40:00,
2013-04-06 18:56:00,47.3,47.0,29.83,SSW,200,0.0,-999.0,98,-99.99,,,0.56,weatherlink.com 1.10,2013-04-07 01:56:00,
2013-04-06 19:10:00,46.8,46.0,29.82,SSW,200,0.0,-999.0,98,-99.99,,,0.56,weatherlink.com 1.10,2013-04-07 02:10:00,
2013-04-06 19:25:00,46.2,45.0,29.81,SSW,200,0.0,-999.0,97,-99.99,,,0.58,weatherlink.com 1.10,2013-04-07 02:25:00,
2013-04-06 19:40:00,45.7,45.0,29.81,SSW,200,0.0,-999.0,97,-99.99,,,0.59,weatherlink.com 1.10,2013-04-07 02:40:00,
2013-04-06 19:55:00,45.5,45.0,29.79,SSW,200,0.0,-999.0,98,-99.99,,,0.60,weatherlink.com 1.10,2013-04-07 02:55:00,
2013-04-06 20:10:00,45.5,45.0,29.79,SSW,200,0.0,-999.0,98,-99.99,,,0.62,weatherlink.com 1.10,2013-04-07 03:10:00,
2013-04-06 20:26:00,45.4,45.0,29.78,SSW,200,0.0,-999.0,98,-99.99,,,0.64,weatherlink.com 1.10,2013-04-07 03:26:00,
2013-04-06 20:55:00,45.7,45.0,29.76,SSW,200,0.0,-999.0,98,-99.99,,,0.69,weatherlink.com 1.10,2013-04-07 03:55:00,
2013-04-06 21:11:00,46.0,46.0,29.75,SSW,200,0.0,-999.0,99,-99.99,,,0.71,weatherlink.com 1.10,2013-04-07 04:11:00,
2013-04-06 21:26:00,46.2,46.0,29.74,West,259,0.0,-999.0,99,-99.99,,,0.75,weatherlink.com 1.10,2013-04-07 04:26:00,
2013-04-06 21:40:00,46.4,46.0,29.73,West,259,0.0,-999.0,99,-99.99,,,0.80,weatherlink.com 1.10,2013-04-07 04:40:00,
2013-04-06 21:55:00,46.5,46.0,29.71,SSW,192,0.0,-999.0,99,-99.99,,,0.82,weatherlink.com 1.10,2013-04-07 04:55:00,
2013-04-06 22:11:00,46.8,47.0,29.70,SSW,192,0.0,-999.0,99,-99.99,,,0.83,weatherlink.com 1.10,2013-04-07 05:11:00,
2013-04-06 22:25:00,46.8,47.0,29.68,South,175,0.0,-999.0,99,-99.99,,,0.85,weatherlink.com 1.10,2013-04-07 05:25:00,
2013-04-06 22:40:00,47.0,47.0,29.67,South,175,0.0,-999.0,99,-99.99,,,0.87,weatherlink.com 1.10,2013-04-07 05:40:00,
2013-04-06 22:55:00,46.8,47.0,29.65,SW,226,0.0,-999.0,99,-99.99,,,0.88,weatherlink.com 1.10,2013-04-07 05:55:00,